Location: Tauranga
(37.6860°S, 176.1670°E)
Time: 13:35:44
(UTC+13:00)

ISS - Visible Passes

Search period start: 24 January 2019 00:00
Search period end: 03 February 2019 00:00
Orbit: 404 x 410 km, 51.6° (Epoch: 24 January)

Date Brightness Start Highest point End Pass type
(mag) Time Alt. Az. Time Alt. Az. Time Alt. Az.
26 Jan -1.5 05:40:14 10° N 05:42:38 19° NE 05:45:03 10° E visible
28 Jan -3.2 05:33:11 12° NNW 05:36:11 51° NE 05:39:27 10° ESE visible
29 Jan -2.2 04:44:01 22° NNE 04:44:53 25° NE 04:47:43 10° ESE visible
30 Jan -0.9 03:54:46 12° ENE 03:54:46 12° ENE 03:55:18 10° E visible
30 Jan -3.5 05:27:29 17° WNW 05:29:51 57° SW 05:33:10 10° SE visible
31 Jan -3.9 04:38:10 67° N 04:38:25 72° NE 04:41:46 10° SE visible
01 Feb -1.4 03:48:46 20° E 03:48:46 20° E 03:50:08 10° ESE visible
01 Feb -2.1 05:21:29 14° W 05:23:38 26° SSW 05:26:31 10° SSE visible
02 Feb -3.0 04:32:02 43° SW 04:32:03 43° SW 04:35:17 10° SE visible
